THOR ABLESTAR DEB, 233

Orbit data source: Space-Track

THOR ABLESTAR DEB, 233 is space debris in LEO originally from a launch on Thu, 29 Jun 1961 UTC launched from the Air Force Eastern Test Range (AFETR). Debris objects in space refer to the collection of defunct objects orbiting the Earth. Examples of debris include non-operational satellites, rocket bodies, and fragments generated from explosions, collisions, or faulty payload assembly.

Loading next visibility...
Identifier
233, 1961-015BR
Orbit
LEO
Country
Flag of USUS
Related business
Manufacturer
Unknown
Mission
Spacecraft
Bus & Motor
Unknown
Mass
Unknown
Launch date (UTC)
1961-06-29 (64 years ago)
Launch vehicle
Unknown
Launch site
Air Force Eastern Test Range (AFETR)
Object type
Payload
Rocket body
Debris
Shape & HBR
Unknown
Radar Cross Section
Medium (>0.1 m² and <1 m²)

Expand to show TLE details & history
Last TLE update: 13 hours ago

TLE from 13 hours ago
0 THOR ABLESTAR DEB
1 00233U 61015BR  25261.23051618  .00443991  00000-0  51863-2 0  9998
2 00233  66.8099 188.4276 0021078 224.6577 135.2891 15.59704277339444
Epoch: 2025-09-18T05:31Z
TLE epoch observation values (Epoch: 2025-09-18T05:31:56.597Z)
Latitude
-0.00003°
Longitude
108.04667°
Altitude
400.906 km
Speed
7.665 km/s
True Right ascension
12h 33m 42s
True Declination
0° 00' 00"
Sunlit
Object was in daylight at epoch
Visualization orbit readout
Latitude
Unknown
Longitude
Unknown
Altitude
Unknown
Speed
Unknown
Apparent Right ascension
Unknown
Apparent Declination
Unknown
Sunlit
N/A
Visualization observer readout
Local Sidereal Time
11:32:01
Azimuth
Unknown
Elevation
Unknown
Doppler factor
Unknown
Orbital elements
Apogee altitude
401.035 km
Perigee altitude
372.517 km
Semi-major axis
6,764.913 km
Eccentricity
0.00211
Inclination
66.8099°
RAAN
188.4276°
Arg. of periapsis
224.6577°
True anomaly
135.45871°
Mean anomaly
135.2891°
Eccentric anomaly
135.37394°
Mean motion
3.90077 °/min
Orbital period
92.29 mins
BSTAR
0.0051863
Loading maneuver chart data...
Computing Atmospheric mass density...

Documentation

Showing up to 5 results
|